Weather History for Estherville, IA

Change the Weather History Date:

Saturday, June 8, 2013

  Actual Average Record
Temperature  
Mean Temperature 55 °F 66 °F  
Max Temperature 61 °F 78 °F 94 °F (1964)
Min Temperature 48 °F 55 °F 40 °F (1978)
Degree Days  
Heating Degree Days 10 2  
Month to date heating degree days 54 21  
Since 1 June heating degree days 54 21  
Since 1 July heating degree days 7910 7719  
Cooling Degree Days 0 3  
Month to date cooling degree days 0 22  
Year to date cooling degree days 33 58  
Since 1 June cooling degree days 0 22  
Growing Degree Days 5 (Base 50)    
Moisture  
Dew Point 53 °F    
Average Humidity 85    
Maximum Humidity 93    
Minimum Humidity 77    
Precipitation  
Precipitation 0.70 in 0.13 in 3.50 in (1953)
Month to date precipitation 1.40 1.20  
Sea Level Pressure  
Sea Level Pressure 29.86 in    
Wind  
Wind Speed 13 mph (SE)    
Max Wind Speed 26 mph    
Max Gust Speed 36 mph    
Visibility 7 miles    
Events Rain    
T = Trace of Precipitation, MM = Missing Value Source: NWS Daily Summary

Daily Weather History Graph

Daily Weather History Graph

Search for Another Location

Airport:

Trip Planner

Search our weather history database for the weather conditions in past years. The results will help you decide how hot, cold, wet, or windy it might be!

Date:

Astronomy

Jun. 08, 2013 Rise Set
Actual Time 5:38 AM CDT 8:57 PM CDT
Civil Twilight 5:03 AM CDT 9:33 PM CDT
Nautical Twilight 4:17 AM CDT 10:19 PM CDT
Astronomical Twilight 3:20 AM CDT 11:16 PM CDT
Moon 5:48 AM CDT (6/8) 8:59 PM CDT (6/8)
Length of Visible Light 16h 30m
Length of Day
15h 19m
New Moon, 0% of the Moon is Illuminated
Jun 8
New Moon
Jun 16
First Quarter
Jun 23
Full
Jun 29
Last Quarter
Jul 8
New

Hourly Weather History & Observations

Time (CDT) Temp. Dew Point Humidity Pressure Visibility Wind Dir Wind Speed Gust Speed Precip Events Conditions
12:52 AM 52.0 °F 46.9 °F 83% 29.92 in 10.0 mi South 4.6 mph - N/A   Clear
1:52 AM 51.1 °F 46.9 °F 86% 29.92 in 10.0 mi South 4.6 mph - N/A   Clear
2:52 AM 51.1 °F 48.0 °F 89% 29.91 in 10.0 mi SSE 3.5 mph - N/A   Clear
3:52 AM 50.0 °F 46.0 °F 86% 29.91 in 10.0 mi SE 4.6 mph - N/A   Clear
4:52 AM 51.1 °F 46.9 °F 86% 29.90 in 10.0 mi South 5.8 mph - N/A   Mostly Cloudy
5:52 AM 51.1 °F 48.0 °F 89% 29.88 in 8.0 mi SSE 9.2 mph - N/A   Mostly Cloudy
6:52 AM 54.0 °F 50.0 °F 86% 29.87 in 10.0 mi SSE 8.1 mph - N/A   Partly Cloudy
7:52 AM 57.0 °F 50.0 °F 77% 29.88 in 10.0 mi South 10.4 mph - N/A   Overcast
8:52 AM 57.0 °F 50.0 °F 77% 29.89 in 10.0 mi South 11.5 mph - N/A   Overcast
9:52 AM 57.0 °F 51.1 °F 81% 29.90 in 10.0 mi South 8.1 mph - N/A   Overcast
10:52 AM 59.0 °F 53.1 °F 81% 29.89 in 10.0 mi South 11.5 mph - 0.00 in   Overcast
11:52 AM 60.1 °F 54.0 °F 80% 29.88 in 9.0 mi SSE 9.2 mph - 0.00 in Rain Light Rain
12:52 PM 60.1 °F 55.0 °F 83% 29.88 in 5.0 mi SE 6.9 mph - 0.06 in Rain Light Rain
1:52 PM 60.1 °F 54.0 °F 80% 29.88 in 7.0 mi SE 13.8 mph - 0.06 in Rain Light Rain
2:52 PM 60.1 °F 55.0 °F 83% 29.87 in 8.0 mi SE 15.0 mph - 0.02 in Rain Light Rain
3:52 PM 59.0 °F 55.0 °F 87% 29.87 in 4.0 mi SE 13.8 mph - 0.03 in Rain Light Rain
4:52 PM 60.1 °F 55.0 °F 83% 29.85 in 6.0 mi ESE 18.4 mph 26.5 mph 0.03 in Rain Light Rain
5:52 PM 59.0 °F 55.0 °F 87% 29.84 in 5.0 mi ESE 18.4 mph 24.2 mph 0.04 in Rain Light Rain
6:52 PM 59.0 °F 55.9 °F 90% 29.83 in 5.0 mi ESE 15.0 mph - 0.09 in Rain Light Rain
7:52 PM 60.1 °F 57.0 °F 90% 29.82 in 6.0 mi ESE 15.0 mph - 0.06 in Rain Light Rain
8:24 PM 59.0 °F 57.2 °F 94% 29.83 in 2.5 mi ESE 15.0 mph - 0.03 in Rain Rain
8:35 PM 59.0 °F 57.2 °F 94% 29.82 in 2.5 mi ESE 15.0 mph - 0.05 in Rain Rain
8:37 PM 59.0 °F 57.2 °F 94% 29.82 in 2.5 mi ESE 15.0 mph - 0.05 in Rain Light Rain
8:44 PM 59.0 °F 57.2 °F 94% 29.82 in 3.0 mi ESE 15.0 mph - 0.06 in Rain Light Rain
8:52 PM 59.0 °F 57.0 °F 93% 29.81 in 3.0 mi ESE 18.4 mph 23.0 mph 0.08 in Rain Light Rain
9:52 PM 57.9 °F 55.0 °F 90% 29.81 in 6.0 mi ESE 18.4 mph 27.6 mph 0.07 in Rain Light Rain
10:52 PM 57.9 °F 55.0 °F 90% 29.78 in 7.0 mi East 19.6 mph - 0.12 in Rain Light Rain
11:52 PM 57.9 °F 55.0 °F 90% 29.77 in 8.0 mi ESE 20.7 mph 31.1 mph 0.02 in Rain Light Rain